Location: Betra
(48.4113°N, 8.6634°E)
Time: 01:34:02
(UTC+00:00)

SAR-Lupe-4 - Pass Details

Date: 09 August 2024
Orbit: 473 x 479 km, 98.1° (Epoch: 30 August)

Event Time Altitude Azimuth Distance (km) Brightness Sun altitude
Rises 01:46:53 0° 30° (NNE) 2,541 8.9 -19.1°
Reaches altitude 10° 01:49:38 10° 54° (NE) 1,657 7.3 -18.8°
Maximum altitude 01:51:49 15° 92° (E) 1,351 6.2 -18.6°
Drops below altitude 10° 01:54:00 10° 130° (SE) 1,650 6.2 -18.4°
Enters shadow 01:54:52 - 140° (SE) 1,894 6.4 -18.3°
